SCP
0 0 0 0 0 0 0 0 0 0 -0 0 0 -0 -0 -0 0 0 0 0 0 0 0 0 0 0 0 0 0 0 0 0 0 0 0 0 0 0 0 0 0 0 0 0 0 0 0 0 0
0 0 0 0 0 0 0 0 0 0 -0 0 0 0 -0 -0 -0 0 0 0 0 0 0 0 0 0 0 0 0 0 0 0 0 0 0 0 0 0 0 0 0 0 0 0 0 0 0 0 0
0 0 0 0 0 0 0 0 0 0 0 0 0 0 -0 -0 -0 0 0 0 0 0 0 0 0 0 0 0 0 0 0 0 0 0 0 0 0 0 0 0 0 0 0 0 0 0 0 0 0
0 0 0 0 0 0 0 0 0 0 0 0 0 0 0 -0 0 0 0 0 0 0 0 0 0 0 0 0 0 0 0 0 0 0 0 0 0 0 0 0 0 0 0 0 0 0 0 0 0
0 0 0 0 0 0 0 0 0 0 0 0 0 0 0 0 0 0 0 0 0 0 0 0 0 0 0 0 0 0 0 0 0 0 0 0 0 0 0 0 0 0 0 0 0 0 0 0 0
0 0 0 0 0 0 0 0 0 0 0 0 0 0 0 0 0 0 0 0 0 0 0 0 0 0 0 0 0 0 0 0 0 0 0 0 0 0 0 0 0 0 0 0 0 0 0 0 0
0 0 0 0 0 0 0 0 0 0 0 0 0 0 0 0 0 0 0 0 0 0 0 0 0 0 0 0 0 0 0 0 0 0 0 0 0 0 0 0 0 0 0 0 0 0 0 0 0
0 0 0 0 0 0 0 0 0 0 0 0 0 0 0 0 0 0 0 0 0 0 0 0 0 0 0 0 0 0 0 0 0 0 0 0 0 0 0 0 0 0 0 0 0 0 0 0 0
0 0 0 0 0 0 0 0 0 0 0 0 0 0 0 0 0 0 0 0 0 0 0 0 0 0 0 0 0 0 0 0 0 0 0 0 0 0 0 0 0 0 0 0 0 0 0 0 0
0 0 0 0 0 0 0 0 0 0 0 0 0 0 0 0 0 0 0 0 0 0 0 0 0 0 0 0 0 0 0 0 0 0 0 0 0 0 0 0 0 0 0 0 0 0 0 0 0
0 0 0 0 0 0 0 0 0 0 0 0 0 0 0 0 0 0 0 0 0 0 0 0 0 0 0 0 0 0 0 0 0 0 0 0 0 0 0 0 0 0 0 0 0 0 0 0 0
0 0 0 0 0 0 0 0 0 0 0 0 0 0 0 0 0 0 0 0 0 0 0 0 0 0 0 0 0 0 0 0 0 0 0 0 0 0 0 0 0 0 0 0 0 0 0 0 0
0 0 0 0 0 0 0 0 0 0 0 0 0 0 0 0 0 0 0 0 0 0 0 0 0 0 0 0 0 0 0 0 0 0 0 0 0 0 0 0 0 0 0 0 0 0 0 0 0
0 0 0 0 0 0 0 0 0 0 0 0 0 0 0 0 0 0 0 0 0 0 0 0 0 0 0 0 0 0 0 0 0 0 0 0 0 0 0 0 0 0 0 0 0 0 0 0 0
0 0 0 0 0 0 0 0 0 0 0 0 0 0 0 0 0 0 0 0 0 0 0 0 0 0 0 0 0 0 0 0 0 0 0 0 0 0 0 0 0 0 0 0 0 0 0 0 0
0 0 0 0 0 0 0 0 0 0 0 0 0 0 0 0 0 0 0 0 0 0 0 0 0 0 0 0 0 0 0 0 0 0 0 0 0 0 0 0 0 0 0 0 0 0 0 0 0
0 0 0 0 0 0 0 0 0 0 0 0 0 0 0 0 0 0 0 0 0 0 0 0 0 0 0 0 0 0 0 0 0 0 0 0 0 0 0 0 0 0 0 0 0 0 0 0 0
0 0 0 0 0 0 0 0 0 0 0 0 0 0 0 0 0 0 0 0 0 0 0 0 0 0 0 0 0 0 0 0 0 0 0 0 0 0 0 0 0 0 0 0 0 0 0 0 0
0 0 0 0 0 0 0 0 0 0 0 0 0 0 0 0 0 0 0 0 0 0 0 0 0 0 0 0 0 0 0 0 0 0 0 0 0 0 0 0 0 0 0 0 0 0 0 0 0
0 0 0 0 0 0 0 0 0 0 0 0 0 0 0 0 0 0 0 0 0 0 0 0 0 0 0 0 0 0 0 0 0 0 0 0 0 0 0 0 0 0 0 0 0 0 0 0 0
0 0 0 0 0 0 0 0 0 0 0 0 0 0 0 0 0 0 0 0 0 0 0 0 0 0 0 0 0 0 0 0 0 0 0 0 0 0 0 0 0 0 0 0 0 0 0 0 0
0 0 0 0 0 0 0 0 0 0 0 0 0 0 0 0 0 0 0 0 0 0 0 0 0 0 0 0 0 0 0 0 0 0 0 0 0 0 0 0 0 0 0 0 0 0 0 0 0
0 0 0 0 0 0 0 0 0 0 0 0 0 0 0 0 0 0 0 0 0 0 0 0 0 0 0 0 0 0 0 0 0 0 0 0 0 0 0 0 0 0 0 0 0 0 0 0 0
0 0 0 0 0 0 0 0 0 0 0 0 0 0 0 0 0 0 0 0 0 0 0 0 0 0 0 0 0 0 0 0 0 0 0 0 0 0 0 0 0 0 0 0 0 0 0 0 0
0 0 0 0 0 0 0 0 0 0 0 0 0 0 0 0 0 0 0 0 0 0 0 0 0 0 0 0 0 0 0 0 0 0 0 0 0 0 0 0 0 0 0 0 0 0 0 0 0
0 0 0 0 0 0 0 0 0 0 0 0 0 0 0 0 0 0 0 0 0 0 0 0 0 0 0 0 0 0 0 0 0 0 0 0 0 0 0 0 0 0 0 0 0 0 0 0 0
0 0 0 0 0 0 0 0 0 0 0 0 0 0 0 0 0 0 0 0 0 0 0 0 0 0 0 0 0 0 0 0 0 0 0 0 0 0 0 0 0 0 0 0 0 0 0 0 0
0 0 0 0 0 0 0 0 0 0 0 0 0 0 0 0 0 0 0 0 0 0 0 0 0 0 0 0 0 0 0 0 0 0 0 0 0 0 0 0 0 0 0 0 0 0 0 0 0
0 0 0 0 0 0 0 0 0 0 0 0 0 0 0 0 0 0 0 0 0 0 0 0 0 0 0 0 0 0 0 0 0 0 0 0 0 0 0 0 0 0 0 0 0 0 0 0 0
0 0 0 0 0 0 0 0 0 0 0 0 0 0 0 0 0 0 0 0 0 0 0 0 0 0 0 0 0 0 0 0 0 0 0 0 0 0 0 0 0 0 0 0 0 0 0 0 0
Wind_Speed
14 7 2 5 7 6 2 2 1 1 0 1 2 4 6 4 3 2 0 5 8 8 7 8 10 12 12 12 11 11 11 11 11 11 11 11 12 12 12 12 11 11 12 12 12 12 12 11 11
7 4 5 6 6 3 2 2 1 2 3 4 3 3 3 1 1 3 3 5 8 8 7 8 10 12 12 12 11 11 10 11 11 11 11 11 11 11 11 11 10 10 10 10 10 11 10 10 10
5 5 6 5 4 4 2 2 2 0 2 3 3 2 2 2 2 4 4 8 7 7 6 8 11 12 12 12 11 10 10 10 10 10 10 10 10 10 10 10 9 9 9 9 9 9 9 9 9
4 6 6 6 1 2 3 2 2 2 2 2 3 2 0 0 3 4 7 9 8 6 6 7 11 12 12 11 11 11 10 10 9 9 9 9 9 9 9 8 8 8 8 8 8 8 7 7 8
5 5 6 3 2 3 2 1 2 2 1 1 3 3 0 3 2 7 9 9 9 7 6 7 10 11 11 11 11 11 10 9 9 9 9 9 8 8 8 8 7 7 7 7 6 6 6 6 6
5 5 4 0 3 4 2 1 2 1 1 2 4 4 1 1 4 7 8 7 7 7 6 6 9 10 10 10 10 10 10 9 9 8 8 8 8 8 8 7 7 7 6 5 5 5 4 4 4
4 4 3 2 2 2 1 1 3 3 2 4 5 4 2 1 4 6 7 6 6 6 6 5 5 7 9 9 9 9 9 8 8 7 7 6 6 7 7 6 6 6 6 5 4 3 3 2 3
4 5 2 2 2 3 2 1 1 4 3 2 4 5 4 4 6 6 6 5 5 5 5 5 5 5 5 5 8 8 8 8 8 7 6 6 5 5 5 5 5 6 5 5 4 2 1 1 1
3 4 3 5 5 3 1 0 1 0 4 2 1 1 1 7 9 8 5 5 6 6 6 5 5 5 5 5 6 7 8 8 8 6 7 5 3 3 3 4 4 5 5 5 4 4 2 0 1
4 4 8 5 4 2 1 1 1 2 2 1 1 0 2 8 10 10 9 10 10 10 8 6 6 6 5 4 4 3 4 4 4 4 5 3 3 2 3 4 5 5 5 5 5 4 2 1 1
4 6 5 4 3 2 1 1 1 4 3 5 5 4 6 7 9 10 10 10 10 9 8 8 8 6 6 4 4 3 2 3 4 5 5 4 3 2 2 1 2 2 3 2 3 2 1 1 1
3 4 3 3 2 2 2 1 1 4 6 3 4 5 8 10 12 13 12 10 8 8 9 8 8 7 7 5 4 4 3 3 3 4 5 4 3 3 3 2 2 2 2 2 2 2 2 3 3
5 3 3 3 2 2 2 3 3 5 6 2 2 6 9 11 11 9 7 7 7 9 10 9 9 9 8 7 5 5 5 5 5 4 5 5 4 4 4 3 3 3 2 3 3 3 3 4 4
5 4 3 2 3 2 3 4 3 8 3 2 3 7 9 10 10 7 8 9 10 11 11 9 10 10 9 8 7 6 6 6 5 5 6 7 5 5 5 4 4 4 4 4 4 4 4 4 3
1 2 4 4 3 3 2 7 8 7 3 4 5 6 7 9 8 10 11 11 11 10 9 10 10 10 10 10 9 7 6 6 6 7 7 8 7 6 5 5 5 5 4 4 4 4 3 4 4
3 3 6 5 5 4 5 12 8 6 5 7 7 6 7 8 9 10 10 10 9 8 9 10 9 10 11 10 9 7 7 7 7 6 6 9 9 8 6 5 6 5 4 4 4 4 4 4 4
4 6 7 4 4 5 7 10 7 4 6 8 7 7 7 8 9 10 10 10 10 10 9 9 10 11 11 10 8 7 7 8 7 6 7 8 9 9 8 7 6 5 5 5 5 5 4 5 5
8 6 5 7 4 5 8 10 8 5 5 8 8 8 8 9 12 11 9 10 9 8 8 9 9 10 9 7 6 5 6 7 7 7 8 9 8 10 9 7 7 6 5 6 6 6 6 5 4
6 7 7 6 4 5 10 13 13 9 7 9 9 9 9 11 11 8 8 7 7 7 9 10 10 10 7 5 6 7 8 7 7 7 8 9 9 10 10 7 7 7 7 8 8 6 6 6 3
7 7 6 3 2 4 7 13 12 10 10 10 11 11 11 10 9 8 7 6 8 9 9 10 11 9 10 8 6 4 4 4 6 6 8 10 10 10 9 10 8 8 7 8 8 8 5 4 5
14 13 8 4 1 2 4 11 10 9 8 8 9 10 10 11 11 10 8 7 7 8 10 9 10 10 10 9 5 3 2 2 3 6 7 9 10 10 9 10 9 8 9 8 9 9 9 7 5
16 9 8 6 3 5 4 10 9 8 9 10 11 10 11 11 10 9 8 7 7 9 7 8 8 8 8 8 7 9 8 8 7 5 5 5 8 9 10 10 10 9 8 9 9 9 9 8 7
5 7 9 8 7 7 6 9 10 5 10 11 11 12 12 11 10 10 9 8 7 6 5 6 6 6 6 7 9 9 9 8 4 3 4 5 6 8 9 9 9 10 9 10 9 9 10 9 9
6 5 3 5 6 16 15 11 12 8 11 8 9 11 11 10 9 8 7 5 5 4 3 4 4 4 4 6 7 9 10 8 6 5 5 5 4 5 8 8 9 9 9 10 10 10 11 10 10
9 8 6 8 11 13 9 11 14 8 9 10 10 10 9 8 7 6 5 4 4 3 3 3 4 3 3 5 6 7 8 7 7 6 6 5 4 5 7 8 8 9 9 9 9 9 10 11 11
15 13 11 9 7 4 6 14 11 6 7 6 7 7 6 6 5 5 5 4 3 3 2 2 3 3 2 3 4 3 3 3 4 4 4 5 5 5 5 6 7 8 8 8 9 8 9 8 10
12 13 9 3 2 4 8 8 10 4 5 6 6 6 7 6 5 4 3 2 2 1 1 2 2 2 2 2 2 2 1 1 1 1 1 2 2 3 3 4 5 6 7 8 8 8 9 8 9
10 9 7 9 9 10 8 8 9 5 8 8 8 8 8 5 3 2 1 1 0 1 1 2 2 2 2 2 2 2 1 1 0 0 1 2 3 2 3 3 4 5 5 6 7 7 7 8 8
10 12 9 7 6 7 7 10 8 10 9 9 10 8 6 4 3 1 0 1 2 2 2 3 3 3 3 3 2 2 2 2 1 1 2 2 3 3 3 3 3 4 4 5 5 6 6 8 8
10 12 13 10 9 6 6 10 3 6 6 6 6 5 3 2 2 2 1 2 2 3 3 3 3 3 3 3 3 3 3 3 3 3 3 3 3 3 3 3 3 3 4 4 4 6 6 7 7
Wind_Direction
326 330 37 52 53 51 55 294 242 157 154 62 101 127 138 146 165 192 108 139 135 140 147 145 143 141 137 135 132 132 130 128 125 122 119 115 112 109 105 104 102 102 101 101 100 97 91 83 78
321 344 43 55 77 68 296 275 229 206 157 128 85 94 101 114 104 128 140 152 141 142 143 144 143 143 142 141 139 138 136 134 131 128 125 123 120 116 112 110 108 107 106 106 105 100 93 84 76
341 42 66 66 90 159 222 241 208 55 138 133 91 67 118 166 168 175 174 146 134 137 138 144 146 148 148 147 146 144 142 141 139 135 132 130 126 123 120 118 115 113 111 110 109 104 97 86 77
24 36 51 67 83 213 222 226 189 131 100 88 118 96 26 6 188 178 143 140 136 137 139 150 151 153 154 155 153 151 150 149 146 144 141 138 133 130 128 126 123 120 118 115 114 109 101 89 78
49 63 56 44 306 288 263 216 165 162 150 104 123 130 203 342 105 133 141 144 147 145 146 156 157 158 160 162 161 160 160 157 153 151 150 145 142 141 138 135 133 130 125 121 120 115 105 92 79
47 60 82 204 291 307 296 160 147 170 145 134 134 140 224 21 134 149 147 149 153 152 152 157 163 162 164 168 167 167 167 165 162 159 159 155 153 154 152 148 145 143 138 135 131 125 111 96 82
94 95 148 191 270 302 291 153 170 167 171 194 159 139 260 211 167 151 144 143 149 153 153 160 164 167 170 172 171 171 170 169 168 168 162 159 158 158 156 156 159 160 158 155 151 144 129 110 87
115 107 138 196 206 259 287 177 182 165 178 132 144 155 223 200 148 134 133 146 158 165 167 168 168 168 169 173 177 177 175 173 172 169 160 157 159 158 160 163 174 178 177 176 175 175 170 135 60
89 94 186 206 196 238 288 140 354 154 120 123 200 216 263 135 135 139 149 170 182 188 187 181 179 177 173 175 181 181 181 180 176 171 168 159 152 155 164 182 187 190 191 194 200 208 217 242 1
102 163 211 209 195 210 235 191 197 105 121 189 237 35 101 136 155 169 181 190 195 199 197 193 192 187 180 182 174 178 180 180 177 170 170 163 162 173 182 206 209 206 204 210 219 225 233 253 343
161 193 215 225 214 207 209 236 174 147 209 215 207 187 152 163 177 190 196 199 202 201 200 199 197 193 187 184 176 181 179 178 182 182 178 170 169 179 189 198 228 228 222 222 241 248 243 245 253
189 224 212 224 208 195 206 204 200 194 220 222 212 167 171 182 194 201 204 205 200 201 206 202 197 196 197 191 188 188 190 192 194 193 186 176 179 191 197 203 209 212 212 218 226 234 247 255 258
210 234 227 239 246 247 226 222 227 242 250 282 148 159 187 197 208 214 214 210 206 210 211 205 197 199 198 196 198 198 202 203 202 197 195 189 191 199 202 208 209 212 209 213 221 231 245 255 261
218 220 248 250 229 231 222 248 220 249 235 193 180 197 206 210 214 215 217 217 214 216 215 206 203 202 198 201 204 204 204 206 204 206 204 198 199 201 203 210 213 216 212 213 217 225 236 248 254
184 233 278 250 211 224 200 266 229 237 194 218 225 226 227 229 223 222 222 222 220 221 214 208 207 202 202 206 207 207 206 204 210 213 208 204 204 204 204 209 215 217 211 213 221 233 237 249 253
150 197 240 244 195 200 177 251 250 233 204 233 239 239 239 241 233 234 231 229 226 221 217 213 206 203 206 208 206 207 206 206 213 213 210 210 208 204 204 211 219 211 203 206 216 223 233 243 246
195 214 222 247 210 185 194 244 254 226 204 234 243 243 243 252 252 243 234 229 226 220 219 215 208 206 208 207 206 207 206 211 213 211 212 212 211 208 208 215 216 203 205 211 217 219 217 237 245
193 201 209 214 221 191 220 245 261 254 221 237 246 249 248 248 251 245 236 231 227 222 217 216 212 212 205 200 202 206 213 218 216 215 215 210 210 208 210 217 213 202 210 217 217 224 220 229 240
174 187 210 220 215 198 233 249 256 254 246 247 248 246 247 250 254 254 243 236 229 223 217 216 214 211 195 190 198 207 219 218 217 218 214 211 211 208 211 217 212 208 217 222 217 219 227 232 208
210 215 217 246 224 214 252 259 256 244 236 232 236 240 243 249 263 262 253 237 226 226 224 221 219 212 202 203 196 193 191 207 213 212 215 214 213 210 212 217 216 211 219 223 219 213 219 220 187
218 217 208 214 324 273 297 281 254 250 235 239 238 238 241 240 248 255 253 242 232 230 226 223 220 214 208 202 182 169 166 191 201 215 221 218 215 214 215 218 219 217 216 225 221 215 219 231 209
228 205 190 195 208 248 211 274 259 238 244 239 240 240 243 244 243 247 251 251 236 234 230 225 223 216 208 192 191 195 204 217 220 216 216 211 210 217 218 221 221 223 223 227 224 217 218 224 229
205 165 186 199 215 248 223 256 268 208 239 242 238 238 240 240 239 243 245 245 244 237 228 224 218 214 202 192 197 202 217 228 227 207 214 217 215 217 220 222 224 227 228 230 227 221 220 221 229
148 132 171 191 212 242 225 228 264 205 217 225 229 233 237 241 242 245 250 250 255 250 229 216 202 208 194 192 197 203 216 224 224 224 227 228 223 222 224 224 227 231 232 233 231 228 226 226 228
167 167 201 210 217 239 190 212 251 211 206 206 216 226 234 239 243 247 253 252 252 245 222 205 191 202 192 188 197 208 217 221 226 231 235 236 234 232 231 225 231 234 236 238 235 232 232 229 230
192 190 200 207 214 244 182 225 249 218 219 219 221 227 239 245 244 245 245 240 238 238 220 187 182 187 171 173 191 200 209 217 233 238 240 240 243 245 245 233 236 237 238 240 238 237 236 233 233
181 206 205 205 224 242 233 258 291 243 239 233 233 238 242 243 245 248 254 244 230 222 200 170 158 142 138 150 154 158 174 196 232 261 261 270 279 282 270 253 249 247 243 243 242 242 240 236 236
182 162 168 202 210 232 244 239 239 213 220 225 227 227 235 238 237 250 276 313 360 75 74 88 106 109 98 99 114 113 118 133 250 12 341 310 304 304 295 278 264 259 255 251 247 249 247 243 242
177 185 191 197 200 206 241 251 221 210 208 211 221 224 227 224 213 188 100 48 60 67 75 77 77 79 74 75 78 78 66 57 52 35 355 331 325 320 308 296 286 279 273 265 256 256 257 251 251
193 196 191 206 215 209 233 259 245 211 212 207 220 229 231 204 173 149 125 91 77 74 68 69 68 69 62 64 67 64 52 47 40 17 355 349 339 337 327 317 309 302 296 288 276 271 268 263 261